Flag for Brazil Weather past 2 weeks in Belém, Para, Brazil

Now
81 °F

Broken clouds.


Feels Like: 85 °F
Forecast: N/A
Wind: 12 mph from North

Location: Belem Aeroporto

Current Time: Mar 6, 2015 at 5:58:21 PM

Latest Report: Mar 6, 2015 at 5:00 PM


Visibility: N/A

Pressure: 29.80 "Hg

Humidity: 79%

Dew point: 73 °F

Location of BelémLocation

Historic Weather in Belém — Graph

°F

Belém temperature yesterday

Maximum temperature yesterday: 86 °F (at 12:00 PM)
Minimum temperature yesterday: 43 °F (at 2:00 PM)
Average temperature yesterday: 75 °F

Past Weeks' High & Low Weather Summary

 TemperatureHumidityPressure
High88 °F (Feb 20, 4:00 PM)100% (Feb 21, 1:00 AM)29.95 "Hg (Feb 21, 1:00 AM)
Low39 °F (Mar 2, 4:00 PM)59% (Feb 20, 12:00 PM)29.59 "Hg (Feb 24, 3:00 PM)
Average78 °F85%29.86 "Hg
* Reported Feb 19 5:00 PM — Mar 6 5:00 PM, Belém, Weather by CustomWeather, © 2015

Note: Actual official high and low records may vary slightly from our data, if they occured in-between our weather recording intervals... More about our weather records

Advertising

Belém weather history for previous 24 hours

 ConditionsComfort  
Time TempWeatherWind HumidityBarometerVisibility
5:00 PM
Fri, Mar 6
81 °FBroken clouds.12 mph79%29.80 "HgN/A
4:00 PM84 °FScattered clouds.9 mph70%29.80 "HgN/A
3:00 PM84 °FBroken clouds.7 mph66%29.83 "HgN/A
2:00 PM81 °FPartly sunny.10 mph79%29.86 "HgN/A
1:00 PM82 °FBroken clouds.5 mph70%29.86 "HgN/A
12:00 PM79 °FScattered showers. Partly sunny.8 mph89%N/AN/A
11:00 AM81 °FSleet. Partly sunny.7 mph79%29.92 "HgN/A
10:00 AM81 °FPartly sunny.3 mph79%29.95 "HgN/A
9:00 AM77 °FBroken clouds.3 mph89%29.92 "HgN/A
8:00 AM75 °FPartly sunny.3 mph94%29.89 "HgN/A
7:00 AM73 °FBroken clouds.3 mph94%29.86 "HgN/A
6:00 AM73 °FPassing clouds.2 mph94%29.86 "HgN/A
5:00 AM73 °FPassing clouds.7 mph100%29.83 "HgN/A
4:00 AM75 °FPassing clouds.6 mph94%29.83 "HgN/A
3:00 AM75 °FPassing clouds.7 mph94%29.86 "HgN/A
2:00 AM75 °FPassing clouds.3 mph94%29.86 "HgN/A
1:00 AM75 °FPassing clouds.5 mph89%29.89 "HgN/A
12:00 AM75 °FPassing clouds.3 mph94%29.89 "HgN/A
11:00 PM
Thu, Mar 5
75 °FPassing clouds.3 mph89%29.89 "HgN/A
10:00 PM75 °FPartly cloudy.6 mph89%29.89 "HgN/A
9:00 PM75 °FPassing clouds.6 mph89%29.86 "HgN/A
8:00 PM75 °FPassing clouds.7 mph89%29.83 "HgN/A
7:00 PM75 °FPassing clouds.8 mph83%29.80 "HgN/A
6:00 PM77 °FBroken clouds.9 mph79%29.77 "HgN/A
5:00 PM75 °FBroken clouds.6 mph89%29.74 "HgN/A
Weather by CustomWeather, © 2015

See weather overviewHow to use our weather pages